Location: Fontevrault
(47.1823°N, 0.0493°E)
Time: 09:35:59
(UTC+00:00)

Cosmos 1844 Rocket - Pass Details

Date: 16 June 2021
Orbit: 823 x 846 km, 71.0° (Epoch: 03 August)

Event Time Altitude Azimuth Distance (km) Brightness Sun altitude
Rises 22:18:19 0° 327° (NNW) 3,411 7.6 -15.8°
Reaches altitude 10° 22:20:53 10° 321° (NW) 2,474 6.4 -15.9°
Maximum altitude 22:26:10 41° 253° (WSW) 1,207 3.5 -16.3°
Enters shadow 22:29:39 20° 193° (SSW) 1,869 4.0 -16.5°
